#timestamp,LO_Frequency,Hit,StdDev 
1519740015.4,286046995.2,P
1519740035.2,286046994.6,N
1519740055.0,286046991.4,P
1519740055.9,286046991.4,Y
1519740075.8,286046996.4,P
1519740095.6,286046991.9,P
1519740115.4,286046991.2,P
1519740135.3,286046987.6,Y
1519740155.1,286046992.7,P
1519740175.9,286046989.9,P
1519740195.7,286046985.7,P
1519740215.5,286046984.8,Y
1519740235.4,286046993.1,P
1519740255.2,286046989.8,P
1519740275.1,286046985.7,P
1519740276.0,286046985.7,Y
1519740295.8,286046994.1,P
1519740315.6,286046992.8,P
1519740335.5,286046989.6,P
1519740355.3,286046986.1,Y
1519740375.2,286046993.1,P
1519740395.9,286046989.6,P
1519740415.7,286046988.0,P
1519740435.6,286046984.1,Y
1519740455.4,286046990.3,P
1519740475.2,286046987.3,P
1519740495.1,286046985.8,P
1519740496.0,286046985.8,Y
1519740515.8,286046996.1,P
1519740535.7,286046992.0,N
1519740555.5,286046988.7,P
1519740575.3,286046988.1,Y
1519740595.2,286046994.6,P
1519740615.0,286046991.1,P
1519740615.9,286046991.1,P
1519740635.8,286046987.1,Y
1519740655.6,286046994.0,P
1519740675.4,286046990.4,P
1519740695.3,286046989.1,P
1519740715.1,286046985.8,Y
1519740735.9,286046992.7,P
1519740755.7,286046991.2,P
1519740775.5,286046988.1,P
1519740795.4,286046984.1,Y
1519740815.2,286046990.1,P
1519740835.1,286046989.7,P
1519740836.0,286046989.7,P
1519740855.8,286046988.4,Y
1519740875.6,286046993.6,P
1519740895.5,286046990.3,P
1519740915.3,286046989.8,P
1519740935.2,286046985.3,Y
1519740955.9,286046992.1,P
1519740975.7,286046990.7,P
1519740995.6,286046989.7,P
1519741015.4,286046986.6,Y
1519741035.2,286046992.0,P
1519741055.1,286046988.5,P
1519741056.0,286046988.5,P
1519741075.8,286046988.1,Y
1519741095.7,286046995.7,P
1519741115.5,286046992.2,N
1519741135.3,286046991.1,P
1519741155.2,286046989.8,Y
1519741175.0,286046994.0,P
1519741175.9,286046994.0,P
1519741195.8,286046990.7,P
1519741215.6,286046989.4,Y
1519741235.4,286046994.0,P
1519741255.3,286046990.2,P
1519741275.1,286046989.5,P
1519741295.9,286046985.7,Y
1519741315.7,286046992.6,P
1519741335.5,286046991.0,P
1519741355.4,286046986.9,P
1519741375.2,286046986.6,Y
1519741395.1,286046991.8,P
1519741396.0,286046991.8,P
1519741415.8,286046991.4,P
1519741435.6,286046987.3,Y
1519741455.5,286046993.8,P
1519741475.3,286046992.3,P
1519741495.1,286046988.6,P
1519741515.9,286046988.4,Y
1519741535.7,286046994.3,P
1519741555.6,286046990.6,P
1519741575.4,286046988.8,P
1519741595.2,286046987.1,Y
1519741615.1,286046994.0,P
1519741616.0,286046994.0,P
1519741635.8,286046990.2,P
1519741655.7,286046991.2,Y
1519741675.5,286046995.9,P
1519741695.3,286046991.9,P
1519741715.2,286046990.6,P
1519741735.0,286046989.4,Y
1519741735.9,286046989.4,P
1519741755.8,286046994.0,P
1519741775.6,286046992.4,P
1519741795.4,286046991.2,Y
1519741815.3,286046996.2,P
1519741835.1,286046994.8,N
1519741855.9,286046993.2,P
1519741875.7,286046989.0,Y
1519741895.5,286046994.3,P
1519741915.4,286046990.6,P
1519741935.2,286046988.7,P
1519741955.0,286046985.3,Y
1519741956.0,286046985.3,P
1519741975.8,286046991.7,N
1519741995.6,286046990.7,P
1519742015.5,286046989.1,Y
1519742035.3,286046996.5,P
1519742055.1,286046995.3,N
1519742075.9,286046993.5,N
1519742095.7,286046992.3,Y
1519742115.6,286046997.3,P
1519742135.4,286046995.4,N
1519742155.2,286046993.6,P
1519742175.1,286046992.0,Y
1519742176.0,286046992.0,P
1519742195.8,286046995.1,P
1519742215.7,286046993.4,P
1519742235.5,286046994.4,Y
1519742255.3,286046996.6,P
1519742275.2,286046995.4,P
1519742295.0,286046996.3,P
1519742295.9,286046996.3,Y
1519742315.8,286046999.5,P
1519742335.6,286046998.0,N
1519742355.4,286046993.5,P
1519742375.3,286046992.5,Y
1519742395.1,286046993.8,P
1519742415.9,286046991.9,P
1519742435.7,286046991.3,P
1519742455.5,286046990.0,Y
1519742475.4,286046993.6,P
1519742495.2,286046992.0,P
1519742515.0,286046990.7,P
1519742516.0,286046990.7,Y
1519742535.8,286046996.7,P
1519742555.6,286046998.0,N
1519742575.5,286046995.2,N
1519742595.3,286046993.6,Y
1519742615.1,286046996.7,P
1519742635.9,286047011.9,P
1519742655.7,286046994.0,N
1519742675.6,286046994.8,N
1519742695.4,286046992.7,N
1519742715.2,286046990.5,N
1519742735.1,286046988.7,N
1519742736.0,286046988.7,N
1519742755.8,286046986.3,N
1519742775.7,286046988.1,N
1519742795.5,286046986.6,N
1519742815.3,286046984.4,N
1519742835.2,286046982.6,N
1519742855.0,286046980.8,N
1519742855.9,286046980.8,N
1519742875.7,286046979.4,N
1519742895.6,286046977.7,N
1519742915.4,286046978.2,N
1519742935.3,286046977.1,N
1519742955.1,286046974.7,Y
1519742975.8,286046986.5,P
1519742995.7,286046986.8,P
1519743015.5,286046982.1,P
1519743035.4,286046982.4,Y
1519743055.2,286046997.9,P
1519743075.0,286046995.8,N
1519743075.9,286046995.8,N
1519743095.8,286046996.2,N
1519743115.6,286046994.2,N
1519743135.4,286046994.3,N
1519743155.3,286046992.3,N
1519743175.1,286046986.3,Y
1519743195.9,286046995.5,P
1519743215.7,286046996.4,P
1519743235.5,286046994.3,P
1519743255.4,286046993.1,Y
1519743275.2,286046996.1,P
1519743295.1,286046993.8,P
1519743296.0,286046993.8,P
1519743315.8,286046993.3,Y
1519743335.6,286046999.4,P
1519743355.5,286046997.7,N
1519743375.3,286046995.4,N
1519743395.2,286046993.5,Y
1519743415.9,286046997.4,P
1519743435.7,286046996.2,P
1519743455.6,286046994.1,P
1519743475.4,286046994.4,Y
1519743495.3,286046997.9,P
1519743515.1,286046995.1,P
1519743516.0,286046995.1,P
1519743535.8,286046995.8,Y
1519743555.7,286046998.3,P
1519743575.5,286046996.8,N
1519743595.4,286046996.7,P
